CW0009 Weather Reports


Display with metric or nautical units.
time (UTC)temp
F
wind
direction
speed
MPH
gust
MPH
rain 1hr
in
rain 24hr
in
rain mn
in
humidity
%
barometer
mb
20170328022010 41 20 0.0 0.0 0.00 0.00 0.00 85 1020.0
20170328021011 42 20 0.0 0.0 0.00 0.00 0.00 85 1020.0
20170328020011 42 20 0.0 0.0 0.00 0.00 0.00 84 1020.0
20170328015010 42 20 0.0 0.0 0.00 0.00 0.00 84 1020.0
20170328014010 42 25 0.0 0.0 0.00 0.00 0.00 84 1020.0
20170328012032 42 25 0.0 0.0 0.00 0.00 0.00 84 1020.0
20170328011010 42 25 0.0 0.0 0.00 0.00 0.00 84 1020.0
20170328010018 43 25 0.0 0.0 0.00 0.00 0.00 83 1020.0
20170328005010 43 20 0.0 0.0 0.00 0.00 0.00 83 1020.0
20170328004010 43 20 0.0 0.0 0.00 0.00 0.00 83 1020.0
20170328003033 43 25 0.0 0.0 0.00 0.00 0.00 83 1020.0
20170328001011 44 20 0.0 0.0 0.00 0.00 0.00 83 1020.0
20170328000033 44 20 0.0 0.0 0.00 0.00 0.00 82 1020.0
20170327235011 44 20 0.0 0.0 0.00 0.00 0.00 82 1020.0
20170327234010 44 20 0.0 0.0 0.00 0.00 0.00 82 1020.0
20170327233012 44 20 0.0 0.0 0.00 0.00 0.00 82 1020.0
20170327232009 44 20 0.0 0.0 0.00 0.00 0.00 81 1020.0
20170327231011 45 20 0.0 0.0 0.00 0.00 0.00 81 1020.0
20170327230011 45 20 0.0 0.0 0.00 0.00 0.00 80 1020.0
20170327224032 45 25 0.0 0.0 0.00 0.00 0.00 80 1020.0
20170327223034 46 20 0.0 0.0 0.00 0.00 0.00 79 1020.0
20170327222010 46 20 0.0 0.0 0.00 0.00 0.00 78 1021.0
20170327221011 46 25 0.0 0.0 0.00 0.00 0.00 78 1021.0
20170327220032 46 25 0.0 0.0 0.00 0.00 0.00 77 1021.0
20170327215009 47 20 0.0 0.0 0.00 0.00 0.00 77 1021.0
20170327214010 47 20 0.0 0.0 0.00 0.00 0.00 76 1021.0
20170327212032 48 20 0.0 0.0 0.00 0.00 0.00 75 1021.0
20170327211010 48 20 0.0 0.0 0.00 0.00 0.00 75 1021.0
20170327210010 49 20 0.0 0.0 0.00 0.00 0.00 74 1021.0
20170327205011 49 20 0.0 0.0 0.00 0.00 0.00 73 1021.0
20170327204031 49 20 0.0 0.0 0.00 0.00 0.00 73 1021.0
20170327203016 50 20 0.0 0.0 0.00 0.00 0.00 72 1021.0
20170327202010 50 20 0.0 0.0 0.00 0.00 0.00 71 1021.0
20170327201011 51 20 0.0 0.0 0.00 0.00 0.00 71 1020.0
20170327200011 51 20 0.0 0.0 0.00 0.00 0.00 70 1020.0
20170327195010 52 20 0.0 0.0 0.00 0.00 0.00 69 1020.0
20170327192010 53 20 0.0 0.0 0.00 0.00 0.00 67 1020.0
20170327191032 54 20 0.0 0.0 0.00 0.00 0.00 66 1020.0
20170327190032 55 20 0.0 0.0 0.00 0.00 0.00 65 1020.0
20170327185010 55 20 0.0 0.0 0.00 0.00 0.00 64 1020.0
20170327184011 56 20 0.0 0.0 0.00 0.00 0.00 63 1020.0
20170327183012 57 20 1.0 2.0 0.00 0.00 0.00 62 1020.0
20170327182010 57 20 0.0 2.0 0.00 0.00 0.00 60 1020.0
20170327181023 58 20 0.0 0.0 0.00 0.00 0.00 60 1020.0
20170327180033 58 20 0.0 0.0 0.00 0.00 0.00 58 1020.0
20170327174031 59 25 0.0 0.0 0.00 0.00 0.00 56 1020.0
20170327173013 59 20 0.0 0.0 0.00 0.00 0.00 54 1020.0
20170327172009 60 20 0.0 0.0 0.00 0.00 0.00 52 1020.0
20170327171032 60 20 1.0 0.0 0.00 0.00 0.00 52 1020.0
20170327170010 60 20 1.0 3.0 0.00 0.00 0.00 50 1020.0
20170327165010 60 20 0.0 0.0 0.00 0.00 0.00 50 1020.0
20170327164011 60 20 1.0 2.0 0.00 0.00 0.00 50 1020.0
20170327163013 60 20 0.0 1.0 0.00 0.00 0.00 50 1020.0
20170327161010 60 20 2.0 0.0 0.00 0.00 0.00 50 1020.0
20170327160010 60 20 3.0 6.0 0.00 0.00 0.00 50 1020.0
20170327155011 60 20 3.0 6.0 0.00 0.00 0.00 50 1020.0
20170327154011 60 40 2.0 7.0 0.00 0.00 0.00 50 1020.0
20170327153017 60 65 1.0 6.0 0.00 0.00 0.00 50 1020.0
20170327151033 61 130 3.0 6.0 0.00 0.00 0.00 51 1020.0
20170327150010 61 135 1.0 8.0 0.00 0.00 0.00 50 1020.0
20170327145010 61 130 2.0 1.0 0.00 0.00 0.00 50 1020.0
20170327144032 61 130 3.0 6.0 0.00 0.00 0.00 49 1020.0
20170327143011 61 45 5.0 6.0 0.00 0.00 0.00 49 1020.0
20170327141011 62 125 5.0 6.0 0.00 0.00 0.00 49 1021.0
20170327135010 62 50 3.0 9.0 0.00 0.00 0.00 48 1021.0
20170327134032 63 80 5.0 9.0 0.00 0.00 0.00 48 1021.0
20170327133034 63 115 8.0 9.0 0.00 0.00 0.00 47 1021.0
20170327132010 64 55 7.0 9.0 0.00 0.00 0.00 47 1021.0
20170327131032 64 80 5.0 7.0 0.00 0.00 0.00 47 1021.0
20170327130032 65 45 3.0 3.0 0.00 0.00 0.00 47 1021.0
20170327125030 66 45 5.0 3.0 0.00 0.00 0.00 46 1022.0
20170327124011 67 90 5.0 9.0 0.00 0.00 0.00 45 1022.0
20170327123012 69 30 5.0 8.0 0.00 0.00 0.00 44 1022.0
20170327122032 71 65 6.0 6.0 0.00 0.00 0.00 41 1022.0
20170327121011 74 75 7.0 7.0 0.00 0.00 0.00 37 1022.0
20170327120010 71 35 9.0 10.0 0.00 0.00 0.00 42 1022.0
20170327115032 69 95 8.0 10.0 0.00 0.00 0.00 44 1022.0
20170327114010 67 80 7.0 10.0 0.00 0.00 0.00 46 1022.0
20170327111010 66 125 6.0 8.0 0.00 0.00 0.00 49 1022.0
20170327105031 65 35 6.0 5.0 0.00 0.00 0.00 54 1023.0
20170327102010 63 135 5.0 7.0 0.00 0.00 0.00 63 1023.0
20170327101010 63 85 6.0 8.0 0.00 0.00 0.00 63 1023.0
20170327100011 62 70 6.0 9.0 0.00 0.00 0.00 65 1023.0
20170327095010 62 40 5.0 6.0 0.00 0.00 0.00 65 1023.0
20170327094032 60 60 5.0 7.0 0.00 0.00 0.00 70 1023.0
20170327093012 58 30 5.0 9.0 0.00 0.00 0.00 72 1023.0
20170327092033 57 50 3.0 7.0 0.00 0.00 0.00 73 1023.0
20170327091011 54 130 2.0 8.0 0.00 0.00 0.00 77 1023.0
20170327090032 54 140 3.0 8.0 0.00 0.00 0.00 77 1023.0
20170327084010 52 45 1.0 3.0 0.00 0.00 0.00 80 1023.0
20170327082010 50 45 2.0 6.0 0.00 0.00 0.00 83 1023.0
20170327081032 49 45 1.0 5.0 0.00 0.00 0.00 84 1023.0
20170327080033 48 45 1.0 0.0 0.00 0.00 0.00 86 1023.0
20170327075010 39 45 2.0 5.0 0.00 0.00 0.00 88 1023.0
20170327074011 39 45 0.0 5.0 0.00 0.00 0.00 88 1023.0
20170327073032 39 45 0.0 0.0 0.00 0.00 0.00 88 1023.0
20170327072031 39 45 0.0 0.0 0.00 0.00 0.00 88 1023.0
20170327071011 39 45 1.0 2.0 0.00 0.00 0.00 88 1023.0
20170327070012 39 45 0.0 2.0 0.00 0.00 0.00 88 1023.0
20170327065031 39 45 0.0 0.0 0.00 0.00 0.00 88 1023.0
20170327064010 39 45 0.0 0.0 0.00 0.00 0.00 88 1023.0
20170327063032 39 45 0.0 0.0 0.00 0.00 0.00 88 1023.0
20170327061031 39 45 0.0 0.0 0.00 0.00 0.00 88 1023.0
20170327060010 39 45 0.0 0.0 0.00 0.00 0.00 88 1023.0
20170327055033 39 45 0.0 0.0 0.00 0.00 0.00 88 1023.0
20170327054011 39 45 0.0 0.0 0.00 0.00 0.00 88 1023.0
20170327053032 39 45 0.0 0.0 0.00 0.00 0.00 88 1023.0
20170327052009 39 45 0.0 0.0 0.00 0.00 0.00 88 1023.0
20170327051011 39 45 0.0 0.0 0.00 0.00 0.00 88 1023.0
20170327050010 39 45 0.0 0.0 0.00 0.00 0.00 88 1023.0
20170327045010 39 45 0.0 0.0 0.00 0.00 0.00 87 1023.0
20170327044010 41 45 0.0 0.0 0.00 0.00 0.00 86 1023.0
20170327043012 41 45 0.0 0.0 0.00 0.00 0.00 86 1023.0
20170327041010 41 50 0.0 0.0 0.00 0.00 0.00 86 1022.0
20170327040011 41 50 0.0 0.0 0.00 0.00 0.00 86 1022.0
20170327035010 41 50 0.0 0.0 0.00 0.00 0.00 86 1022.0
20170327033034 41 50 0.0 0.0 0.00 0.00 0.00 86 1023.0
20170327032011 41 50 0.0 0.0 0.00 0.00 0.00 86 1023.0
20170327031011 41 50 0.0 0.0 0.00 0.00 0.00 86 1023.0
20170327030010 41 45 0.0 0.0 0.00 0.00 0.00 86 1023.0
20170327025010 41 50 0.0 0.0 0.00 0.00 0.00 86 1023.0
20170327024031 41 45 0.0 0.0 0.00 0.00 0.00 86 1023.0
20170327023032 41 45 0.0 0.0 0.00 0.00 0.00 86 1023.0